Home > Time Zones > World Clock > Weather > Spain > Cadiz > Past weeks

Flag for Spain Weather past 2 weeks in Cadiz, Cádiz, Spain

Now
79 °F

Sunny.


Feels Like: 81 °F
Forecast: 71 / 79 °F
Wind: 17 mph from West

Location: Rota Airport

Current Time: Jul 30, 2015 at 7:14:03 PM

Latest Report: Jul 30, 2015 at 6:00 PM


Visibility: 10 mi

Pressure: 29.83 "Hg

Humidity: 70%

Dew point: 68 °F

Location of CadizLocation

Historic Weather in Cadiz — Graph

°F

Cadiz temperature yesterday

Maximum temperature yesterday: 84 °F (at 12:00 PM)
Minimum temperature yesterday: 73 °F (at 8:00 AM)
Average temperature yesterday: 78 °F

Past Weeks' High & Low Weather Summary

 TemperatureHumidityPressure
High97 °F (Jul 17, 1:00 PM)94% (Jul 18, 8:00 AM)30.07 "Hg (Jul 18, 8:00 AM)
Low68 °F (Jul 24, 7:00 AM)26% (Jul 17, 7:00 PM)29.83 "Hg (Jul 28, 7:00 PM)
Average79 °F68%29.94 "Hg
* Reported Jul 15 5:00 PM — Jul 30 5:00 PM, Cadiz, Weather by CustomWeather, © 2015

Note: Actual official high and low records may vary slightly from our data, if they occured in-between our weather recording intervals... More about our weather records

Advertising

Cadiz weather history for previous 24 hours

 ConditionsComfort  
Time TempWeatherWind HumidityBarometerVisibility
5:00 PM
Thu, Jul 30
79 °FSunny.17 mph70%29.86 "Hg10 mi
4:00 PM79 °FPassing clouds.15 mph70%29.89 "HgN/A
3:00 PM81 °FPassing clouds.14 mph66%29.89 "HgN/A
2:00 PM79 °FPassing clouds.14 mph70%29.92 "HgN/A
1:00 PM79 °FPassing clouds.9 mph65%29.92 "HgN/A
12:00 PM77 °FPassing clouds.9 mph74%29.92 "HgN/A
11:00 AM77 °FPassing clouds.9 mph74%29.92 "HgN/A
10:00 AM75 °FPassing clouds.8 mph74%29.92 "HgN/A
9:00 AM75 °FPassing clouds.1 mph74%29.89 "HgN/A
8:00 AM68 °FClear.No wind94%29.89 "HgN/A
7:00 AM70 °FClear.No wind83%29.86 "Hg10 mi
6:00 AM73 °FClear.No wind78%29.86 "Hg10 mi
5:00 AM75 °FClear.1 mph74%29.86 "Hg10 mi
4:00 AM75 °FClear.No wind74%29.86 "Hg10 mi
3:00 AM77 °FClear.No wind69%29.89 "Hg10 mi
2:00 AM77 °FClear.No wind74%29.89 "Hg10 mi
1:00 AM75 °FPassing clouds.3 mph89%29.89 "HgN/A
12:00 AM77 °FClear.6 mph79%29.89 "Hg10 mi
11:00 PM
Wed, Jul 29
77 °FClear.3 mph79%29.86 "Hg10 mi
10:00 PM77 °FSunny.8 mph79%29.83 "Hg10 mi
9:00 PM79 °FSunny.15 mph74%29.83 "Hg10 mi
8:00 PM81 °FSunny.15 mph62%29.83 "Hg10 mi
7:00 PM81 °FSunny.15 mph62%29.83 "Hg10 mi
Weather by CustomWeather, © 2015

See weather overviewHow to use our weather pages